Time,TemperatureF,DewpointF,PressureIn,WindDirection,WindDirectionDegrees,WindSpeedMPH,WindSpeedGustMPH,Humidity,HourlyPrecipIn,Conditions,Clouds,dailyrainin,SoftwareType,DateUTC
2013-08-05 00:01:00,62.1,55.0,29.94,WNW,286,0.0,2.0,78,0.00,,,0.00,meteohub,2013-08-05 04:01:00,
2013-08-05 00:02:00,62.1,55.0,29.94,WNW,286,0.0,2.0,78,0.00,,,0.00,meteohub,2013-08-05 04:02:00,
2013-08-05 00:07:00,61.9,55.2,29.94,WNW,286,0.0,1.0,79,0.00,,,0.00,meteohub,2013-08-05 04:07:00,
2013-08-05 00:12:00,61.9,55.2,29.93,WNW,286,0.0,1.0,79,0.00,,,0.00,meteohub,2013-08-05 04:12:00,
2013-08-05 00:17:00,61.7,55.0,29.94,WNW,286,0.0,0.0,79,0.00,,,0.00,meteohub,2013-08-05 04:17:00,
2013-08-05 00:22:00,61.5,54.9,29.94,WNW,286,0.0,1.0,79,0.00,,,0.00,meteohub,2013-08-05 04:22:00,
2013-08-05 00:27:00,61.5,55.6,29.94,WNW,286,0.0,1.0,81,0.00,,,0.00,meteohub,2013-08-05 04:27:00,
2013-08-05 00:32:00,61.3,55.4,29.94,WNW,286,0.0,1.0,81,0.00,,,0.00,meteohub,2013-08-05 04:32:00,
2013-08-05 00:37:00,61.0,55.4,29.94,WNW,286,0.0,0.0,82,0.00,,,0.00,meteohub,2013-08-05 04:37:00,
2013-08-05 00:42:00,60.8,55.2,29.94,WNW,286,0.0,0.0,82,0.00,,,0.00,meteohub,2013-08-05 04:42:00,
2013-08-05 00:47:00,60.6,55.4,29.95,WNW,286,0.0,1.0,83,0.00,,,0.00,meteohub,2013-08-05 04:47:00,
2013-08-05 00:52:00,60.4,54.9,29.95,WNW,286,0.0,1.0,82,0.00,,,0.00,meteohub,2013-08-05 04:52:00,
2013-08-05 00:57:00,60.3,55.0,29.95,WNW,286,0.0,1.0,83,0.00,,,0.00,meteohub,2013-08-05 04:57:00,
2013-08-05 01:02:00,60.3,55.0,29.94,WNW,286,0.0,1.0,83,0.00,,,0.00,meteohub,2013-08-05 05:02:00,
2013-08-05 01:07:00,60.1,54.9,29.94,WNW,286,1.0,0.0,83,0.00,,,0.00,meteohub,2013-08-05 05:07:00,
2013-08-05 01:12:00,60.1,55.2,29.94,WNW,286,0.0,1.0,84,0.00,,,0.00,meteohub,2013-08-05 05:12:00,
2013-08-05 01:17:00,60.1,54.9,29.94,WNW,286,0.0,1.0,83,0.00,,,0.00,meteohub,2013-08-05 05:17:00,
2013-08-05 01:22:00,59.7,55.2,29.94,WNW,286,0.0,1.0,85,0.00,,,0.00,meteohub,2013-08-05 05:22:00,
2013-08-05 01:27:00,59.7,55.2,29.94,WNW,286,0.0,1.0,85,0.00,,,0.00,meteohub,2013-08-05 05:27:00,
2013-08-05 01:32:00,59.9,55.4,29.94,WNW,286,1.0,1.0,85,0.00,,,0.00,meteohub,2013-08-05 05:32:00,
2013-08-05 01:37:00,60.3,55.8,29.93,NW,308,0.0,2.0,85,0.00,,,0.00,meteohub,2013-08-05 05:37:00,
2013-08-05 01:42:00,60.4,55.9,29.93,ENE,58,3.0,3.0,85,0.00,,,0.00,meteohub,2013-08-05 05:42:00,
2013-08-05 01:47:00,61.0,56.5,29.93,ENE,58,1.0,3.0,85,0.00,,,0.00,meteohub,2013-08-05 05:47:00,
2013-08-05 01:52:00,61.2,56.3,29.93,ENE,58,0.0,3.0,84,0.00,,,0.00,meteohub,2013-08-05 05:52:00,
2013-08-05 01:57:00,61.3,56.1,29.93,ENE,58,1.0,3.0,83,0.00,,,0.00,meteohub,2013-08-05 05:57:00,
2013-08-05 02:02:00,61.3,56.1,29.93,ENE,58,0.0,2.0,83,0.00,,,0.00,meteohub,2013-08-05 06:02:00,
2013-08-05 02:08:00,61.5,55.9,29.93,ENE,58,0.0,1.0,82,0.00,,,0.00,meteohub,2013-08-05 06:08:00,
2013-08-05 02:12:00,61.5,55.9,29.93,ENE,58,0.0,1.0,82,0.00,,,0.00,meteohub,2013-08-05 06:12:00,
2013-08-05 02:18:00,61.5,55.9,29.93,NE,56,0.0,1.0,82,0.00,,,0.00,meteohub,2013-08-05 06:18:00,
2013-08-05 02:23:00,61.5,55.9,29.93,NE,56,0.0,2.0,82,0.00,,,0.00,meteohub,2013-08-05 06:23:00,
2013-08-05 02:28:00,61.5,55.6,29.92,NE,55,0.0,3.0,81,0.00,,,0.00,meteohub,2013-08-05 06:28:00,
2013-08-05 02:33:00,61.5,55.2,29.92,ENE,57,1.0,3.0,80,0.00,,,0.00,meteohub,2013-08-05 06:33:00,
2013-08-05 02:38:00,61.5,55.2,29.92,ENE,57,0.0,2.0,80,0.00,,,0.00,meteohub,2013-08-05 06:38:00,
2013-08-05 02:43:00,61.7,55.0,29.92,ENE,58,1.0,2.0,79,0.00,,,0.00,meteohub,2013-08-05 06:43:00,
2013-08-05 02:47:00,61.7,55.0,29.92,ENE,57,1.0,2.0,79,0.00,,,0.00,meteohub,2013-08-05 06:47:00,
2013-08-05 02:53:00,61.9,55.2,29.91,ENE,57,1.0,2.0,79,0.00,,,0.00,meteohub,2013-08-05 06:53:00,
2013-08-05 02:58:00,61.9,55.2,29.91,ENE,58,1.0,2.0,79,0.00,,,0.00,meteohub,2013-08-05 06:58:00,
2013-08-05 03:03:00,61.9,55.2,29.91,ENE,57,1.0,2.0,79,0.00,,,0.00,meteohub,2013-08-05 07:03:00,
2013-08-05 03:08:00,61.9,55.2,29.91,ENE,58,0.0,2.0,79,0.00,,,0.00,meteohub,2013-08-05 07:08:00,
2013-08-05 03:13:00,61.9,55.2,29.91,ENE,58,0.0,2.0,79,0.00,,,0.00,meteohub,2013-08-05 07:13:00,
2013-08-05 03:18:00,61.7,55.0,29.91,ENE,58,2.0,2.0,79,0.00,,,0.00,meteohub,2013-08-05 07:18:00,
2013-08-05 03:23:00,61.7,55.0,29.91,NE,50,2.0,2.0,79,0.00,,,0.00,meteohub,2013-08-05 07:23:00,
2013-08-05 03:28:00,61.7,55.0,29.91,NE,42,1.0,3.0,79,0.00,,,0.00,meteohub,2013-08-05 07:28:00,
2013-08-05 03:33:00,61.5,54.9,29.91,NE,43,2.0,3.0,79,0.00,,,0.00,meteohub,2013-08-05 07:33:00,
2013-08-05 03:38:00,61.5,54.9,29.91,NE,47,0.0,4.0,79,0.00,,,0.00,meteohub,2013-08-05 07:38:00,
2013-08-05 03:43:00,61.3,54.9,29.91,NE,39,1.0,4.0,79,0.00,,,0.00,meteohub,2013-08-05 07:43:00,
2013-08-05 03:48:00,61.3,54.9,29.91,NE,40,1.0,4.0,79,0.00,,,0.00,meteohub,2013-08-05 07:48:00,
2013-08-05 03:53:00,61.3,55.0,29.91,NE,40,0.0,3.0,80,0.00,,,0.00,meteohub,2013-08-05 07:53:00,
2013-08-05 03:58:00,61.3,55.0,29.91,NE,40,0.0,3.0,80,0.00,,,0.00,meteohub,2013-08-05 07:58:00,
2013-08-05 04:03:00,61.3,55.4,29.91,NE,40,1.0,2.0,81,0.00,,,0.00,meteohub,2013-08-05 08:03:00,
2013-08-05 04:08:00,61.3,55.4,29.91,NE,40,0.0,1.0,81,0.00,,,0.00,meteohub,2013-08-05 08:08:00,
2013-08-05 04:13:00,61.2,55.2,29.91,NE,40,0.0,2.0,81,0.00,,,0.00,meteohub,2013-08-05 08:13:00,
2013-08-05 04:18:00,61.2,55.2,29.91,NE,40,0.0,2.0,81,0.00,,,0.00,meteohub,2013-08-05 08:18:00,
2013-08-05 04:23:00,61.2,55.6,29.91,NE,40,1.0,1.0,82,0.00,,,0.00,meteohub,2013-08-05 08:23:00,
2013-08-05 04:28:00,61.2,55.6,29.91,NE,40,0.0,0.0,82,0.00,,,0.00,meteohub,2013-08-05 08:28:00,
2013-08-05 04:33:00,61.0,55.0,29.91,NE,40,0.0,1.0,81,0.00,,,0.00,meteohub,2013-08-05 08:33:00,
2013-08-05 04:38:00,61.0,55.4,29.91,NE,40,0.0,1.0,82,0.00,,,0.00,meteohub,2013-08-05 08:38:00,
2013-08-05 04:43:00,61.0,55.4,29.91,NE,40,0.0,0.0,82,0.00,,,0.00,meteohub,2013-08-05 08:43:00,
2013-08-05 04:48:00,60.8,55.2,29.91,NE,40,0.0,0.0,82,0.00,,,0.00,meteohub,2013-08-05 08:48:00,
2013-08-05 04:53:00,60.6,55.0,29.92,NE,40,0.0,0.0,82,0.00,,,0.00,meteohub,2013-08-05 08:53:00,
2013-08-05 04:59:00,60.4,54.9,29.91,NE,40,0.0,0.0,82,0.00,,,0.00,meteohub,2013-08-05 08:59:00,
2013-08-05 05:04:00,60.3,54.7,29.91,NE,40,0.0,0.0,82,0.00,,,0.00,meteohub,2013-08-05 09:04:00,
2013-08-05 05:10:00,60.1,54.9,29.91,NE,40,0.0,0.0,83,0.00,,,0.00,meteohub,2013-08-05 09:10:00,
2013-08-05 05:15:00,60.1,54.9,29.91,NE,40,0.0,0.0,83,0.00,,,0.00,meteohub,2013-08-05 09:15:00,
2013-08-05 05:21:00,59.9,54.7,29.91,NE,40,0.0,0.0,83,0.00,,,0.00,meteohub,2013-08-05 09:21:00,
2013-08-05 05:26:00,59.7,54.9,29.91,NE,40,0.0,0.0,84,0.00,,,0.00,meteohub,2013-08-05 09:26:00,
2013-08-05 05:31:00,59.7,54.9,29.91,NE,40,0.0,0.0,84,0.00,,,0.00,meteohub,2013-08-05 09:31:00,
2013-08-05 05:37:00,59.5,54.3,29.91,NE,40,0.0,0.0,83,0.00,,,0.00,meteohub,2013-08-05 09:37:00,
2013-08-05 05:42:00,59.5,54.7,29.92,NE,40,0.0,0.0,84,0.00,,,0.00,meteohub,2013-08-05 09:42:00,
2013-08-05 05:47:00,59.5,54.7,29.92,NE,40,0.0,0.0,84,0.00,,,0.00,meteohub,2013-08-05 09:47:00,
2013-08-05 05:52:00,59.5,54.3,29.92,NE,40,0.0,0.0,83,0.00,,,0.00,meteohub,2013-08-05 09:52:00,
2013-08-05 05:57:00,59.5,54.7,29.92,NE,40,0.0,0.0,84,0.00,,,0.00,meteohub,2013-08-05 09:57:00,
2013-08-05 06:02:00,59.7,54.9,29.92,NE,40,0.0,0.0,84,0.00,,,0.00,meteohub,2013-08-05 10:02:00,
2013-08-05 06:07:00,59.9,55.0,29.92,NE,40,0.0,0.0,84,0.00,,,0.00,meteohub,2013-08-05 10:07:00,
2013-08-05 06:12:00,60.1,55.2,29.92,NE,40,0.0,0.0,84,0.00,,,0.00,meteohub,2013-08-05 10:12:00,
2013-08-05 06:17:00,60.1,55.2,29.92,NE,40,0.0,0.0,84,0.00,,,0.00,meteohub,2013-08-05 10:17:00,
2013-08-05 06:22:00,60.3,55.8,29.93,NE,40,0.0,0.0,85,0.00,,,0.00,meteohub,2013-08-05 10:22:00,
2013-08-05 06:27:00,60.3,55.8,29.92,NE,40,0.0,0.0,85,0.00,,,0.00,meteohub,2013-08-05 10:27:00,
2013-08-05 06:32:00,60.4,56.3,29.92,NE,40,0.0,0.0,86,0.00,,,0.00,meteohub,2013-08-05 10:32:00,
2013-08-05 06:37:00,60.4,55.9,29.93,NE,40,0.0,0.0,85,0.00,,,0.00,meteohub,2013-08-05 10:37:00,
2013-08-05 06:43:00,60.4,55.6,29.92,NE,40,0.0,0.0,84,0.00,,,0.00,meteohub,2013-08-05 10:43:00,
2013-08-05 06:47:00,60.4,55.6,29.92,NE,40,0.0,0.0,84,0.00,,,0.00,meteohub,2013-08-05 10:47:00,
2013-08-05 06:53:00,60.4,55.6,29.92,NE,40,0.0,0.0,84,0.00,,,0.00,meteohub,2013-08-05 10:53:00,
2013-08-05 06:58:00,60.4,55.9,29.93,NE,40,0.0,0.0,85,0.00,,,0.00,meteohub,2013-08-05 10:58:00,
2013-08-05 07:04:00,60.4,55.9,29.93,NE,40,0.0,0.0,85,0.00,,,0.00,meteohub,2013-08-05 11:04:00,
2013-08-05 07:09:00,60.6,56.5,29.93,NE,40,0.0,0.0,86,0.00,,,0.00,meteohub,2013-08-05 11:09:00,
2013-08-05 07:14:00,60.6,56.5,29.93,NE,40,0.0,0.0,86,0.00,,,0.00,meteohub,2013-08-05 11:14:00,
2013-08-05 07:19:00,60.6,56.5,29.93,NE,40,0.0,0.0,86,0.00,,,0.00,meteohub,2013-08-05 11:19:00,
2013-08-05 07:25:00,60.8,57.2,29.94,NE,40,0.0,0.0,88,0.00,,,0.00,meteohub,2013-08-05 11:25:00,
2013-08-05 07:30:00,61.0,57.7,29.94,NE,40,0.0,0.0,89,0.00,,,0.00,meteohub,2013-08-05 11:30:00,
2013-08-05 07:35:00,61.2,57.9,29.94,NE,40,0.0,0.0,89,0.00,,,0.00,meteohub,2013-08-05 11:35:00,
2013-08-05 07:40:00,61.2,57.6,29.94,NE,40,0.0,0.0,88,0.00,,,0.00,meteohub,2013-08-05 11:40:00,
2013-08-05 07:45:00,61.3,57.7,29.94,NE,40,0.0,0.0,88,0.00,,,0.00,meteohub,2013-08-05 11:45:00,
2013-08-05 07:51:00,61.3,57.7,29.94,NE,40,0.0,0.0,88,0.00,,,0.00,meteohub,2013-08-05 11:51:00,
2013-08-05 07:57:00,61.3,57.7,29.94,NE,40,0.0,0.0,88,0.00,,,0.00,meteohub,2013-08-05 11:57:00,
2013-08-05 08:02:00,61.5,57.9,29.94,NE,52,0.0,3.0,88,0.00,,,0.00,meteohub,2013-08-05 12:02:00,
2013-08-05 08:07:00,61.9,58.3,29.94,NE,40,0.0,3.0,88,0.00,,,0.00,meteohub,2013-08-05 12:07:00,
2013-08-05 08:12:00,62.1,58.8,29.94,NE,40,0.0,3.0,89,0.00,,,0.00,meteohub,2013-08-05 12:12:00,
2013-08-05 08:17:00,62.1,58.8,29.95,NE,41,0.0,3.0,89,0.00,,,0.00,meteohub,2013-08-05 12:17:00,
2013-08-05 08:22:00,62.2,58.6,29.95,NE,40,0.0,3.0,88,0.00,,,0.00,meteohub,2013-08-05 12:22:00,
2013-08-05 08:27:00,62.2,59.0,29.95,NE,40,0.0,1.0,89,0.00,,,0.00,meteohub,2013-08-05 12:27:00,
2013-08-05 08:32:00,62.4,59.2,29.95,NE,40,0.0,1.0,89,0.00,,,0.00,meteohub,2013-08-05 12:32:00,
2013-08-05 08:36:00,62.8,59.5,29.95,NNW,347,0.0,1.0,89,0.00,,,0.00,meteohub,2013-08-05 12:36:00,
2013-08-05 08:42:00,63.0,59.7,29.96,NNE,23,0.0,2.0,89,0.00,,,0.00,meteohub,2013-08-05 12:42:00,
2013-08-05 08:47:00,63.1,60.1,29.95,NE,35,1.0,2.0,90,0.00,,,0.00,meteohub,2013-08-05 12:47:00,
2013-08-05 08:52:00,63.3,60.1,29.95,East,93,2.0,3.0,89,0.00,,,0.00,meteohub,2013-08-05 12:52:00,
2013-08-05 08:57:00,63.3,60.1,29.95,NE,49,0.0,3.0,89,0.00,,,0.00,meteohub,2013-08-05 12:57:00,
2013-08-05 09:03:00,63.5,60.4,29.95,ENE,64,2.0,4.0,90,0.00,,,0.00,meteohub,2013-08-05 13:03:00,
2013-08-05 09:08:00,63.7,60.4,29.96,ENE,64,2.0,4.0,89,0.00,,,0.00,meteohub,2013-08-05 13:08:00,
2013-08-05 09:13:00,63.9,60.6,29.96,East,82,2.0,4.0,89,0.00,,,0.00,meteohub,2013-08-05 13:13:00,
2013-08-05 09:19:00,64.2,61.0,29.96,ENE,76,0.0,3.0,89,0.00,,,0.00,meteohub,2013-08-05 13:19:00,
2013-08-05 09:24:00,64.6,61.0,29.96,NE,55,0.0,3.0,88,0.00,,,0.00,meteohub,2013-08-05 13:24:00,
2013-08-05 09:29:00,64.8,60.8,29.96,NE,53,1.0,3.0,87,0.00,,,0.00,meteohub,2013-08-05 13:29:00,
2013-08-05 09:34:00,65.1,61.2,29.95,ENE,65,1.0,6.0,87,0.00,,,0.00,meteohub,2013-08-05 13:34:00,
2013-08-05 09:39:00,65.5,61.5,29.95,ESE,120,3.0,6.0,87,0.00,,,0.00,meteohub,2013-08-05 13:39:00,
2013-08-05 09:44:00,65.8,61.5,29.95,SE,125,1.0,6.0,86,0.00,,,0.00,meteohub,2013-08-05 13:44:00,
2013-08-05 09:50:00,65.8,61.2,29.95,SE,133,2.0,3.0,85,0.00,,,0.00,meteohub,2013-08-05 13:50:00,
2013-08-05 09:55:00,66.0,61.3,29.95,SE,138,3.0,4.0,85,0.00,,,0.00,meteohub,2013-08-05 13:55:00,
2013-08-05 10:00:00,65.7,60.6,29.95,East,96,3.0,5.0,84,0.00,,,0.00,meteohub,2013-08-05 14:00:00,
2013-08-05 10:04:00,65.8,61.5,29.95,SE,139,1.0,5.0,86,0.00,,,0.00,meteohub,2013-08-05 14:04:00,
2013-08-05 10:10:00,66.0,60.6,29.95,ESE,104,3.0,5.0,83,0.00,,,0.00,meteohub,2013-08-05 14:10:00,
2013-08-05 10:15:00,66.6,61.2,29.95,ENE,66,2.0,5.0,83,0.00,,,0.00,meteohub,2013-08-05 14:15:00,
2013-08-05 10:20:00,67.3,61.9,29.95,ESE,106,2.0,9.0,83,0.00,,,0.00,meteohub,2013-08-05 14:20:00,
2013-08-05 10:26:00,67.5,61.3,29.95,ESE,106,3.0,9.0,81,0.00,,,0.00,meteohub,2013-08-05 14:26:00,
2013-08-05 10:31:00,67.3,61.2,29.95,East,81,1.0,8.0,81,0.00,,,0.00,meteohub,2013-08-05 14:31:00,
2013-08-05 10:36:00,67.5,61.3,29.95,ESE,102,1.0,7.0,81,0.00,,,0.00,meteohub,2013-08-05 14:36:00,
2013-08-05 10:40:00,67.8,62.4,29.95,SE,125,2.0,7.0,83,0.00,,,0.00,meteohub,2013-08-05 14:40:00,
2013-08-05 10:46:00,68.2,61.7,29.95,SSE,150,2.0,6.0,80,0.00,,,0.00,meteohub,2013-08-05 14:46:00,
2013-08-05 10:52:00,68.4,60.8,29.95,ESE,120,2.0,5.0,77,0.00,,,0.00,meteohub,2013-08-05 14:52:00,
2013-08-05 10:56:00,68.4,60.4,29.95,ESE,107,2.0,5.0,76,0.00,,,0.00,meteohub,2013-08-05 14:56:00,
2013-08-05 11:02:00,68.7,61.5,29.95,ESE,108,4.0,4.0,78,0.00,,,0.00,meteohub,2013-08-05 15:02:00,
2013-08-05 11:06:00,69.3,62.1,29.95,SE,138,4.0,9.0,78,0.00,,,0.00,meteohub,2013-08-05 15:06:00,
2013-08-05 11:12:00,69.6,62.1,29.95,East,89,1.0,9.0,77,0.00,,,0.00,meteohub,2013-08-05 15:12:00,
2013-08-05 11:17:00,69.6,62.8,29.95,SE,129,2.0,9.0,79,0.00,,,0.00,meteohub,2013-08-05 15:17:00,
2013-08-05 11:22:00,69.3,62.4,29.95,East,96,4.0,6.0,79,0.00,,,0.00,meteohub,2013-08-05 15:22:00,
2013-08-05 11:27:00,69.3,60.6,29.95,West,266,2.0,5.0,74,0.00,,,0.00,meteohub,2013-08-05 15:27:00,
2013-08-05 11:32:00,69.4,61.5,29.94,East,100,1.0,6.0,76,0.00,,,0.00,meteohub,2013-08-05 15:32:00,
2013-08-05 11:37:00,69.4,59.5,29.94,ESE,102,2.0,10.0,71,0.00,,,0.00,meteohub,2013-08-05 15:37:00,
2013-08-05 11:42:00,69.6,59.7,29.95,WNW,286,2.0,10.0,71,0.00,,,0.00,meteohub,2013-08-05 15:42:00,
2013-08-05 11:47:00,69.4,60.1,29.95,NW,310,1.0,10.0,72,0.00,,,0.00,meteohub,2013-08-05 15:47:00,
2013-08-05 11:52:00,68.9,60.6,29.95,WNW,283,4.0,9.0,75,0.00,,,0.00,meteohub,2013-08-05 15:52:00,
2013-08-05 11:57:00,68.4,59.7,29.95,West,275,2.0,9.0,74,0.00,,,0.00,meteohub,2013-08-05 15:57:00,
2013-08-05 12:02:00,67.8,60.6,29.95,WSW,254,2.0,9.0,78,0.00,,,0.00,meteohub,2013-08-05 16:02:00,
2013-08-05 12:07:00,67.5,60.4,29.94,West,262,1.0,5.0,78,0.00,,,0.00,meteohub,2013-08-05 16:07:00,
2013-08-05 12:12:00,67.3,59.0,29.94,West,260,1.0,5.0,75,0.00,,,0.00,meteohub,2013-08-05 16:12:00,
2013-08-05 12:17:00,67.6,58.3,29.94,West,262,2.0,5.0,72,0.00,,,0.00,meteohub,2013-08-05 16:17:00,
2013-08-05 12:22:00,68.7,59.0,29.94,East,98,2.0,5.0,71,0.00,,,0.00,meteohub,2013-08-05 16:22:00,
2013-08-05 12:27:00,69.6,61.0,29.94,SSW,211,0.0,6.0,74,0.00,,,0.00,meteohub,2013-08-05 16:27:00,
2013-08-05 12:32:00,69.4,59.5,29.94,West,281,1.0,6.0,71,0.00,,,0.00,meteohub,2013-08-05 16:32:00,
2013-08-05 12:37:00,69.6,59.0,29.94,ESE,120,1.0,9.0,69,0.00,,,0.00,meteohub,2013-08-05 16:37:00,
2013-08-05 12:43:00,70.9,61.9,29.94,NE,56,4.0,9.0,73,0.00,,,0.00,meteohub,2013-08-05 16:43:00,
2013-08-05 12:49:00,70.5,60.6,29.94,SSE,147,1.0,10.0,71,0.00,,,0.00,meteohub,2013-08-05 16:49:00,
2013-08-05 12:54:00,70.2,62.2,29.94,SSE,148,2.0,10.0,76,0.00,,,0.00,meteohub,2013-08-05 16:54:00,
2013-08-05 12:59:00,70.5,61.5,29.94,SSE,149,1.0,10.0,73,0.00,,,0.00,meteohub,2013-08-05 16:59:00,
2013-08-05 13:04:00,70.3,61.7,29.94,ESE,103,1.0,6.0,74,0.00,,,0.00,meteohub,2013-08-05 17:04:00,
2013-08-05 13:09:00,70.3,62.1,29.93,SE,125,3.0,6.0,75,0.00,,,0.00,meteohub,2013-08-05 17:09:00,
2013-08-05 13:15:00,70.0,62.4,29.93,ESE,120,2.0,6.0,77,0.00,,,0.00,meteohub,2013-08-05 17:15:00,
2013-08-05 13:20:00,70.3,62.8,29.93,NE,56,1.0,5.0,77,0.00,,,0.00,meteohub,2013-08-05 17:20:00,
2013-08-05 13:25:00,70.9,63.0,29.93,SE,129,4.0,6.0,76,0.00,,,0.00,meteohub,2013-08-05 17:25:00,
2013-08-05 13:30:00,70.7,62.8,29.93,NE,47,6.0,8.0,76,0.00,,,0.00,meteohub,2013-08-05 17:30:00,
2013-08-05 13:35:00,70.3,62.8,29.92,ENE,58,2.0,9.0,77,0.00,,,0.00,meteohub,2013-08-05 17:35:00,
2013-08-05 13:40:00,70.2,62.2,29.92,ESE,108,4.0,9.0,76,0.00,,,0.00,meteohub,2013-08-05 17:40:00,
2013-08-05 13:45:00,69.6,62.1,29.92,ESE,102,4.0,9.0,77,0.00,,,0.00,meteohub,2013-08-05 17:45:00,
2013-08-05 13:50:00,69.3,62.1,29.92,ENE,64,6.0,7.0,78,0.00,,,0.00,meteohub,2013-08-05 17:50:00,
2013-08-05 13:55:00,69.8,63.0,29.92,ESE,111,3.0,7.0,79,0.00,,,0.00,meteohub,2013-08-05 17:55:00,
2013-08-05 14:00:00,71.4,63.9,29.91,ESE,105,2.0,6.0,77,0.00,,,0.00,meteohub,2013-08-05 18:00:00,
2013-08-05 14:06:00,72.7,62.8,29.91,West,261,2.0,6.0,71,0.00,,,0.00,meteohub,2013-08-05 18:06:00,
2013-08-05 14:12:00,73.2,62.1,29.91,SSE,164,1.0,7.0,68,0.00,,,0.00,meteohub,2013-08-05 18:12:00,
2013-08-05 14:17:00,73.8,64.2,29.92,NE,38,4.0,7.0,72,0.00,,,0.00,meteohub,2013-08-05 18:17:00,
2013-08-05 14:22:00,73.0,62.6,29.92,ESE,108,2.0,7.0,70,0.00,,,0.00,meteohub,2013-08-05 18:22:00,
2013-08-05 14:27:00,72.7,64.2,29.92,SE,125,1.0,10.0,75,0.00,,,0.00,meteohub,2013-08-05 18:27:00,
2013-08-05 14:32:00,72.1,62.2,29.92,SE,137,1.0,10.0,71,0.00,,,0.00,meteohub,2013-08-05 18:32:00,
2013-08-05 14:37:00,72.3,63.1,29.92,SE,135,2.0,8.0,73,0.00,,,0.00,meteohub,2013-08-05 18:37:00,
2013-08-05 14:42:00,72.1,63.3,29.92,East,90,4.0,8.0,74,0.00,,,0.00,meteohub,2013-08-05 18:42:00,
2013-08-05 14:47:00,71.4,64.2,29.92,ENE,59,2.0,7.0,78,0.00,,,0.00,meteohub,2013-08-05 18:47:00,
2013-08-05 14:52:00,71.8,63.5,29.91,SSE,150,1.0,7.0,75,0.00,,,0.00,meteohub,2013-08-05 18:52:00,
2013-08-05 14:57:00,72.5,65.3,29.91,WNW,287,5.0,7.0,78,0.00,,,0.00,meteohub,2013-08-05 18:57:00,
2013-08-05 15:03:00,73.0,63.5,29.91,ESE,110,4.0,8.0,72,0.00,,,0.00,meteohub,2013-08-05 19:03:00,
2013-08-05 15:08:00,73.6,65.5,29.91,West,264,2.0,8.0,76,0.00,,,0.00,meteohub,2013-08-05 19:08:00,
2013-08-05 15:13:00,74.3,64.8,29.91,WNW,290,2.0,8.0,72,0.00,,,0.00,meteohub,2013-08-05 19:13:00,
2013-08-05 15:18:00,74.5,63.1,29.91,South,191,1.0,7.0,68,0.00,,,0.00,meteohub,2013-08-05 19:18:00,
2013-08-05 15:24:00,74.3,62.6,29.91,ESE,106,3.0,7.0,67,0.00,,,0.00,meteohub,2013-08-05 19:24:00,
2013-08-05 15:29:00,73.8,62.1,29.91,West,265,1.0,6.0,67,0.00,,,0.00,meteohub,2013-08-05 19:29:00,
2013-08-05 15:34:00,73.0,63.1,29.91,West,263,4.0,5.0,71,0.00,,,0.00,meteohub,2013-08-05 19:34:00,
2013-08-05 15:39:00,73.2,62.1,29.91,WNW,285,4.0,6.0,68,0.00,,,0.00,meteohub,2013-08-05 19:39:00,
2013-08-05 15:44:00,73.4,62.6,29.91,NE,56,1.0,9.0,69,0.00,,,0.00,meteohub,2013-08-05 19:44:00,
2013-08-05 15:49:00,74.1,62.4,29.90,East,98,3.0,9.0,67,0.00,,,0.00,meteohub,2013-08-05 19:49:00,
2013-08-05 15:54:00,74.7,61.7,29.90,WNW,301,4.0,9.0,64,0.00,,,0.00,meteohub,2013-08-05 19:54:00,
2013-08-05 15:59:00,75.2,60.4,29.90,WSW,257,2.0,7.0,60,0.00,,,0.00,meteohub,2013-08-05 19:59:00,
2013-08-05 16:05:00,75.6,65.1,29.90,SE,137,2.0,9.0,70,0.00,,,0.00,meteohub,2013-08-05 20:05:00,
2013-08-05 16:10:00,74.8,61.9,29.90,SE,125,1.0,9.0,64,0.00,,,0.00,meteohub,2013-08-05 20:10:00,
2013-08-05 16:15:00,74.8,63.1,29.90,SW,216,1.0,9.0,67,0.00,,,0.00,meteohub,2013-08-05 20:15:00,
2013-08-05 16:20:00,74.7,63.0,29.90,West,261,2.0,4.0,67,0.00,,,0.00,meteohub,2013-08-05 20:20:00,
2013-08-05 16:25:00,74.3,63.1,29.90,ESE,115,2.0,4.0,68,0.00,,,0.00,meteohub,2013-08-05 20:25:00,
2013-08-05 16:30:00,73.8,64.6,29.90,SE,138,2.0,6.0,73,0.00,,,0.00,meteohub,2013-08-05 20:30:00,
2013-08-05 16:35:00,73.0,64.2,29.90,SE,134,0.0,8.0,74,0.00,,,0.00,meteohub,2013-08-05 20:35:00,
2013-08-05 16:40:00,72.7,65.1,29.90,SE,144,1.0,8.0,77,0.00,,,0.00,meteohub,2013-08-05 20:40:00,
2013-08-05 16:45:00,73.2,63.3,29.90,NW,305,2.0,5.0,71,0.00,,,0.00,meteohub,2013-08-05 20:45:00,
2013-08-05 16:50:00,73.6,64.0,29.89,ENE,64,1.0,7.0,72,0.00,,,0.00,meteohub,2013-08-05 20:50:00,
2013-08-05 16:56:00,73.6,64.8,29.89,ESE,115,1.0,8.0,74,0.00,,,0.00,meteohub,2013-08-05 20:56:00,
2013-08-05 17:01:00,73.2,64.0,29.89,East,85,2.0,8.0,73,0.00,,,0.00,meteohub,2013-08-05 21:01:00,
2013-08-05 17:06:00,72.7,64.2,29.89,East,81,0.0,8.0,75,0.00,,,0.00,meteohub,2013-08-05 21:06:00,
2013-08-05 17:11:00,72.5,62.6,29.89,WNW,289,4.0,8.0,71,0.00,,,0.00,meteohub,2013-08-05 21:11:00,
2013-08-05 17:17:00,72.1,62.6,29.89,WNW,292,0.0,4.0,72,0.00,,,0.00,meteohub,2013-08-05 21:17:00,
2013-08-05 17:22:00,72.1,62.2,29.89,SSE,148,1.0,4.0,71,0.00,,,0.00,meteohub,2013-08-05 21:22:00,
2013-08-05 17:27:00,71.8,62.6,29.89,West,274,2.0,4.0,73,0.00,,,0.00,meteohub,2013-08-05 21:27:00,
2013-08-05 17:32:00,71.2,63.0,29.90,West,270,0.0,4.0,75,0.00,,,0.00,meteohub,2013-08-05 21:32:00,
2013-08-05 17:37:00,71.1,64.2,29.90,West,267,1.0,4.0,79,0.00,,,0.00,meteohub,2013-08-05 21:37:00,
2013-08-05 17:42:00,70.9,63.7,29.90,WNW,285,1.0,4.0,78,0.00,,,0.00,meteohub,2013-08-05 21:42:00,
2013-08-05 17:47:00,70.5,64.0,29.90,WNW,301,1.0,6.0,80,0.00,,,0.00,meteohub,2013-08-05 21:47:00,
2013-08-05 17:52:00,70.3,63.5,29.90,WNW,284,0.0,6.0,79,0.00,,,0.00,meteohub,2013-08-05 21:52:00,
2013-08-05 17:57:00,70.2,63.7,29.90,WNW,283,1.0,6.0,80,0.00,,,0.00,meteohub,2013-08-05 21:57:00,
2013-08-05 18:02:00,70.0,63.1,29.89,WNW,283,0.0,4.0,79,0.00,,,0.00,meteohub,2013-08-05 22:02:00,
2013-08-05 18:07:00,70.0,64.2,29.89,West,271,4.0,4.0,82,0.00,,,0.00,meteohub,2013-08-05 22:07:00,
2013-08-05 18:13:00,69.6,63.5,29.89,West,260,4.0,5.0,81,0.00,,,0.00,meteohub,2013-08-05 22:13:00,
2013-08-05 18:18:00,69.6,63.5,29.89,West,266,2.0,9.0,81,0.00,,,0.00,meteohub,2013-08-05 22:18:00,
2013-08-05 18:23:00,69.6,63.9,29.89,West,270,2.0,9.0,82,0.00,,,0.00,meteohub,2013-08-05 22:23:00,
2013-08-05 18:28:00,69.4,63.3,29.89,WNW,292,1.0,9.0,81,0.00,,,0.00,meteohub,2013-08-05 22:28:00,
2013-08-05 18:33:00,69.6,62.8,29.89,ESE,106,1.0,7.0,79,0.00,,,0.00,meteohub,2013-08-05 22:33:00,
2013-08-05 18:38:00,69.6,62.8,29.89,WNW,294,6.0,6.0,79,0.00,,,0.00,meteohub,2013-08-05 22:38:00,
2013-08-05 18:43:00,69.6,63.1,29.89,West,278,1.0,7.0,80,0.00,,,0.00,meteohub,2013-08-05 22:43:00,
2013-08-05 18:49:00,69.6,63.1,29.89,WNW,282,1.0,7.0,80,0.00,,,0.00,meteohub,2013-08-05 22:49:00,
2013-08-05 18:54:00,69.4,62.6,29.89,WNW,284,1.0,7.0,79,0.00,,,0.00,meteohub,2013-08-05 22:54:00,
2013-08-05 18:59:00,69.3,62.8,29.89,WNW,283,5.0,7.0,80,0.00,,,0.00,meteohub,2013-08-05 22:59:00,
2013-08-05 19:05:00,69.1,62.2,29.89,WNW,282,2.0,7.0,79,0.00,,,0.00,meteohub,2013-08-05 23:05:00,
2013-08-05 19:10:00,68.9,62.8,29.89,West,267,2.0,6.0,81,0.00,,,0.00,meteohub,2013-08-05 23:10:00,
2013-08-05 19:15:00,68.7,62.6,29.89,WNW,287,2.0,6.0,81,0.00,,,0.00,meteohub,2013-08-05 23:15:00,
2013-08-05 19:21:00,68.5,62.8,29.89,WNW,293,5.0,6.0,82,0.00,,,0.00,meteohub,2013-08-05 23:21:00,
2013-08-05 19:26:00,68.5,62.8,29.89,West,262,1.0,7.0,82,0.00,,,0.00,meteohub,2013-08-05 23:26:00,
2013-08-05 19:31:00,68.4,62.2,29.89,West,270,1.0,7.0,81,0.00,,,0.00,meteohub,2013-08-05 23:31:00,
2013-08-05 19:36:00,68.4,63.0,29.89,WNW,289,1.0,7.0,83,0.00,,,0.00,meteohub,2013-08-05 23:36:00,
2013-08-05 19:41:00,68.4,63.0,29.90,West,281,2.0,6.0,83,0.00,,,0.00,meteohub,2013-08-05 23:41:00,
2013-08-05 19:46:00,68.4,63.0,29.89,West,272,2.0,5.0,83,0.00,,,0.00,meteohub,2013-08-05 23:46:00,
2013-08-05 19:51:00,68.2,62.8,29.90,WNW,297,0.0,8.0,83,0.00,,,0.00,meteohub,2013-08-05 23:51:00,
2013-08-05 19:56:00,68.2,62.8,29.90,WNW,287,2.0,8.0,83,0.00,,,0.00,meteohub,2013-08-05 23:56:00,
2013-08-05 20:01:00,68.2,63.1,29.90,WNW,286,1.0,8.0,84,0.00,,,0.00,meteohub,2013-08-06 00:01:00,
2013-08-05 20:06:00,67.8,63.1,29.90,West,279,0.0,4.0,85,0.00,,,0.00,meteohub,2013-08-06 00:06:00,
2013-08-05 20:11:00,67.6,63.0,29.90,South,189,0.0,4.0,85,0.00,,,0.00,meteohub,2013-08-06 00:11:00,
2013-08-05 20:16:00,67.5,61.7,29.90,West,276,1.0,7.0,82,0.00,,,0.00,meteohub,2013-08-06 00:16:00,
2013-08-05 20:21:00,67.5,62.4,29.90,WNW,287,0.0,7.0,84,0.00,,,0.00,meteohub,2013-08-06 00:21:00,
2013-08-05 20:26:00,67.3,62.6,29.90,WNW,293,4.0,7.0,85,0.00,,,0.00,meteohub,2013-08-06 00:26:00,
2013-08-05 20:31:00,66.9,62.2,29.90,WNW,289,2.0,5.0,85,0.00,,,0.00,meteohub,2013-08-06 00:31:00,
2013-08-05 20:36:00,66.9,62.6,29.90,West,277,2.0,6.0,86,0.00,,,0.00,meteohub,2013-08-06 00:36:00,
2013-08-05 20:41:00,66.7,62.4,29.90,WNW,298,0.0,6.0,86,0.00,,,0.00,meteohub,2013-08-06 00:41:00,
2013-08-05 20:46:00,66.7,62.1,29.90,WNW,288,2.0,6.0,85,0.00,,,0.00,meteohub,2013-08-06 00:46:00,
2013-08-05 20:51:00,66.6,61.9,29.90,West,275,0.0,6.0,85,0.00,,,0.00,meteohub,2013-08-06 00:51:00,
2013-08-05 20:57:00,66.6,62.2,29.90,WNW,284,1.0,6.0,86,0.00,,,0.00,meteohub,2013-08-06 00:57:00,
2013-08-05 21:02:00,66.6,62.6,29.91,West,264,1.0,4.0,87,0.00,,,0.00,meteohub,2013-08-06 01:02:00,
2013-08-05 21:07:00,66.6,63.0,29.91,West,275,2.0,4.0,88,0.00,,,0.00,meteohub,2013-08-06 01:07:00,
2013-08-05 21:12:00,66.4,62.8,29.90,WNW,287,0.0,4.0,88,0.00,,,0.00,meteohub,2013-08-06 01:12:00,
2013-08-05 21:17:00,66.4,62.8,29.90,WNW,287,0.0,4.0,88,0.00,,,0.00,meteohub,2013-08-06 01:17:00,
2013-08-05 21:22:00,66.2,62.6,29.90,ENE,71,0.0,2.0,88,0.00,,,0.00,meteohub,2013-08-06 01:22:00,
2013-08-05 21:27:00,66.0,62.6,29.90,ENE,71,1.0,2.0,89,0.00,,,0.00,meteohub,2013-08-06 01:27:00,
2013-08-05 21:32:00,66.0,63.0,29.90,ENE,71,0.0,2.0,90,0.00,,,0.00,meteohub,2013-08-06 01:32:00,
2013-08-05 21:37:00,66.0,63.0,29.91,ENE,66,0.0,2.0,90,0.00,,,0.00,meteohub,2013-08-06 01:37:00,
2013-08-05 21:42:00,65.8,63.1,29.91,ENE,66,0.0,2.0,91,0.00,,,0.00,meteohub,2013-08-06 01:42:00,
2013-08-05 21:48:00,65.7,63.0,29.91,ENE,66,1.0,2.0,91,0.00,,,0.00,meteohub,2013-08-06 01:48:00,
2013-08-05 21:53:00,65.5,62.8,29.90,ENE,66,0.0,2.0,91,0.00,,,0.00,meteohub,2013-08-06 01:53:00,
2013-08-05 21:58:00,65.5,63.1,29.90,ENE,66,0.0,2.0,92,0.00,,,0.00,meteohub,2013-08-06 01:58:00,
2013-08-05 22:03:00,65.5,63.1,29.91,ENE,66,0.0,2.0,92,0.00,,,0.00,meteohub,2013-08-06 02:03:00,
2013-08-05 22:08:00,65.3,63.0,29.91,ENE,66,0.0,1.0,92,0.00,,,0.00,meteohub,2013-08-06 02:08:00,
2013-08-05 22:14:00,65.3,63.0,29.91,ENE,66,0.0,1.0,92,0.00,,,0.00,meteohub,2013-08-06 02:14:00,
2013-08-05 22:19:00,65.1,61.9,29.90,ENE,72,0.0,0.0,89,0.00,,,0.00,meteohub,2013-08-06 02:19:00,
2013-08-05 22:24:00,65.1,62.4,29.90,ENE,72,0.0,0.0,91,0.00,,,0.00,meteohub,2013-08-06 02:24:00,
2013-08-05 22:29:00,65.1,62.8,29.90,ENE,57,2.0,0.0,92,0.00,,,0.00,meteohub,2013-08-06 02:29:00,
2013-08-05 22:34:00,65.1,63.0,29.91,NE,48,2.0,2.0,93,0.00,,,0.00,meteohub,2013-08-06 02:34:00,
2013-08-05 22:40:00,65.1,63.0,29.91,NE,48,1.0,3.0,93,0.00,,,0.00,meteohub,2013-08-06 02:40:00,
2013-08-05 22:45:00,64.9,62.8,29.91,ENE,68,1.0,3.0,93,0.00,,,0.00,meteohub,2013-08-06 02:45:00,
2013-08-05 22:50:00,64.8,63.0,29.91,ENE,66,1.0,3.0,94,0.00,,,0.00,meteohub,2013-08-06 02:50:00,
2013-08-05 22:55:00,64.8,63.0,29.91,ENE,58,1.0,3.0,94,0.00,,,0.00,meteohub,2013-08-06 02:55:00,
2013-08-05 23:00:00,64.6,62.8,29.91,East,92,1.0,3.0,94,0.00,,,0.00,meteohub,2013-08-06 03:00:00,
2013-08-05 23:06:00,64.4,62.6,29.91,ENE,67,1.0,3.0,94,0.00,,,0.00,meteohub,2013-08-06 03:06:00,
2013-08-05 23:11:00,64.2,62.8,29.90,East,100,2.0,4.0,95,0.00,,,0.00,meteohub,2013-08-06 03:11:00,
2013-08-05 23:16:00,64.2,62.8,29.90,NE,56,1.0,4.0,95,0.00,,,0.00,meteohub,2013-08-06 03:16:00,
2013-08-05 23:21:00,64.2,62.8,29.90,ESE,115,0.0,6.0,95,0.00,,,0.00,meteohub,2013-08-06 03:21:00,
2013-08-05 23:26:00,64.2,62.8,29.90,ESE,111,1.0,6.0,95,0.00,,,0.00,meteohub,2013-08-06 03:26:00,
2013-08-05 23:31:00,64.0,62.6,29.90,ESE,111,0.0,6.0,95,0.00,,,0.00,meteohub,2013-08-06 03:31:00,
2013-08-05 23:37:00,64.0,62.6,29.91,ESE,111,0.0,2.0,95,0.00,,,0.00,meteohub,2013-08-06 03:37:00,
2013-08-05 23:42:00,64.0,62.6,29.91,ESE,120,0.0,1.0,95,0.00,,,0.00,meteohub,2013-08-06 03:42:00,
2013-08-05 23:47:00,63.9,62.4,29.90,East,85,0.0,2.0,95,0.00,,,0.00,meteohub,2013-08-06 03:47:00,
2013-08-05 23:52:00,63.9,62.4,29.90,SE,137,0.0,4.0,95,0.00,,,0.00,meteohub,2013-08-06 03:52:00,
2013-08-05 23:57:00,63.9,62.4,29.90,ESE,104,2.0,4.0,95,0.00,,,0.00,meteohub,2013-08-06 03:57:00,